FW7382 Weather Reports


time (UTC)temp
C
wind
direction
speed
KPH
gust
KPH
rain 1hr
cm
rain 24hr
cm
rain mn
cm
humidity
%
barometer
mb
20260507145015 14 0.0 0.0 0.00 1.32 0.53 74 1014.8
20260507144015 13 0.0 0.0 0.00 1.32 0.53 77 1014.9
20260507143016 14 0.0 0.0 0.00 1.32 0.53 75 1015.0
20260507142016 13 0.0 0.0 0.00 1.32 0.53 78 1014.9
20260507141016 13 0.0 0.0 0.00 1.32 0.53 77 1015.0
20260507140015 14 0.0 0.0 0.00 1.35 0.53 77 1015.2
20260507135015 14 0.0 0.0 0.00 1.35 0.53 78 1015.2
20260507134018 14 0.0 0.0 0.00 1.35 0.53 77 1015.3
20260507133016 13 0.0 0.0 0.00 1.35 0.53 80 1015.3
20260507132015 13 0.0 0.0 0.00 1.37 0.53 81 1015.2
20260507131015 12 0.0 0.0 0.00 1.37 0.53 84 1015.2
20260507130059 12 0.0 0.0 0.00 1.37 0.53 87 1015.2
20260507125035 12 0.0 0.0 0.00 1.40 0.53 87 1015.2
20260507124018 11 0.0 0.0 0.00 1.40 0.53 87 1015.2
20260507123015 12 0.0 0.0 0.00 1.40 0.53 86 1015.1
20260507122119 12 0.0 0.0 0.00 1.40 0.53 85 1015.1
20260507121035 12 0.0 0.0 0.00 1.40 0.53 83 1015.0
20260507120015 13 0.0 0.0 0.00 1.40 0.53 81 1015.2
20260507115037 13 0.0 0.0 0.00 1.40 0.53 81 1015.1
20260507114035 13 0.0 0.0 0.00 1.40 0.53 78 1015.1
20260507113015 13 0.0 0.0 0.00 1.42 0.53 79 1015.2
20260507112015 13 0.0 0.0 0.00 1.42 0.53 79 1015.1
20260507111035 13 0.0 0.0 0.00 1.42 0.53 80 1015.1
20260507110119 13 0.0 0.0 0.00 1.42 0.53 80 1015.0
20260507105035 13 0.0 0.0 0.00 1.42 0.53 81 1015.0
20260507104016 12 0.0 0.0 0.00 1.42 0.53 82 1015.0
20260507103015 12 0.0 0.0 0.00 1.42 0.53 82 1015.0
20260507102035 12 0.0 0.0 0.00 1.42 0.53 84 1015.1
20260507101015 12 0.0 0.0 0.00 1.42 0.53 84 1015.0
20260507100015 11 0.0 0.0 0.00 1.42 0.53 86 1014.9
20260507095017 11 0.0 0.0 0.00 1.42 0.53 87 1014.9
20260507094135 11 0.0 0.0 0.00 1.42 0.53 88 1014.9
20260507093015 11 0.0 0.0 0.00 1.42 0.53 90 1014.8
20260507092016 10 0.0 0.0 0.00 1.42 0.53 91 1014.8
20260507091015 10 0.0 0.0 0.00 1.42 0.53 91 1014.8
20260507090016 10 0.0 0.0 0.00 1.42 0.53 91 1014.6
20260507085141 10 0.0 0.0 0.00 1.42 0.53 91 1014.5
20260507084017 10 0.0 0.0 0.00 1.42 0.53 91 1014.4
20260507083120 10 0.0 0.0 0.00 1.42 0.53 91 1014.6
20260507082017 10 0.0 0.0 0.00 1.42 0.53 92 1014.5
20260507081017 10 0.0 0.0 0.00 1.42 0.53 93 1014.3
20260507080017 10 0.0 0.0 0.00 1.42 0.53 93 1014.3
20260507074040 9 0.0 0.0 0.00 1.42 0.53 92 1014.1
20260507073020 9 0.0 0.0 0.00 1.42 0.53 92 1014.0
20260507071037 9 0.0 0.0 0.03 1.42 0.53 92 1013.8
20260507070116 9 0.0 0.0 0.03 1.42 0.53 93 1013.7
20260507065017 8 0.0 0.0 0.05 1.42 0.53 93 1013.7
20260507064017 8 0.0 0.0 0.05 1.42 0.53 93 1013.7
20260507063017 8 0.0 0.0 0.05 1.42 0.53 93 1013.6
20260507062017 8 0.0 0.0 0.05 1.40 0.51 93 1013.5
20260507061015 8 0.0 0.0 0.05 1.40 0.51 93 1013.5
20260507060017 8 0.0 0.0 0.05 1.40 0.51 93 1013.4
20260507055037 8 0.0 0.0 0.05 1.37 0.51 93 1013.4
20260507054017 8 0.0 0.0 0.08 1.37 0.51 93 1013.3
20260507053037 8 0.0 0.0 0.08 1.37 0.48 93 1013.2
20260507052017 8 0.0 0.0 0.08 1.35 0.46 92 1013.0
20260507051040 8 0.0 0.0 0.10 1.35 0.46 93 1013.0
20260507050020 8 0.0 0.0 0.13 1.35 0.46 93 1012.8
20260507045017 8 0.0 0.0 0.13 1.32 0.43 93 1012.7
20260507044037 8 0.0 0.0 0.10 1.30 0.43 92 1012.6
20260507043017 8 0.0 0.0 0.10 1.27 0.41 93 1012.5
20260507042037 8 0.0 0.0 0.10 1.27 0.38 93 1012.4
20260507041018 8 0.0 0.0 0.10 1.24 0.36 92 1012.3
20260507040017 8 0.0 0.0 0.10 1.22 0.33 93 1012.3
20260507035057 8 0.0 0.0 0.10 1.19 0.33 93 1012.2
20260507034017 8 0.0 0.0 0.10 1.19 0.33 93 1012.1
20260507033037 8 0.0 0.0 0.10 1.17 0.30 93 1012.1
20260507032140 8 0.0 0.0 0.10 1.17 0.28 93 1011.9
20260507031117 8 0.0 0.0 0.10 1.14 0.25 93 1012.0
20260507030017 8 0.0 0.0 0.10 1.12 0.23 93 1011.9
20260507025100 8 0.0 0.0 0.10 1.09 0.23 93 1011.9
20260507024019 8 0.0 0.0 0.13 1.09 0.23 93 1011.9
20260507023100 8 0.0 0.0 0.13 1.09 0.20 93 1011.8
20260507022140 8 0.0 0.0 0.13 1.07 0.18 93 1011.7
20260507021037 8 0.0 0.0 0.10 1.04 0.15 93 1011.6
20260507020017 8 0.0 0.0 0.10 1.02 0.15 93 1011.5
20260507015016 8 0.0 0.0 0.08 0.99 0.13 92 1011.6
20260507014017 8 0.0 0.0 0.08 0.99 0.10 92 1011.4
20260507013056 8 0.0 0.0 0.05 0.97 0.08 92 1011.3
20260507012140 8 0.0 0.0 0.05 0.94 0.05 92 1011.3
20260507010019 8 0.0 0.0 0.05 0.91 0.05 92 1011.2
20260507005057 8 0.0 0.0 0.05 0.91 0.05 92 1011.3
20260507004036 8 0.0 0.0 0.05 0.89 0.03 92 1011.3
20260507003016 8 0.0 0.0 0.05 0.89 0.03 91 1011.3
20260507002016 8 0.0 0.0 0.05 0.89 0.00 91 1011.3
20260507001016 8 0.0 0.0 0.05 0.89 0.00 91 1011.4
20260507000017 8 0.0 0.0 0.05 0.89 0.89 91 1011.3
20260506235035 8 0.0 0.0 0.05 0.86 0.86 91 1011.4
20260506234036 8 0.0 0.0 0.05 0.86 0.86 91 1011.4
20260506233035 8 0.0 0.0 0.03 0.84 0.84 90 1011.5
20260506232015 8 0.0 0.0 0.05 0.84 0.84 90 1011.5
20260506231119 8 0.0 0.0 0.05 0.84 0.84 90 1011.5
20260506230015 8 0.0 0.0 0.03 0.81 0.81 90 1011.5
20260506225015 8 0.0 0.0 0.03 0.81 0.81 90 1011.5
20260506224035 8 0.0 0.0 0.03 0.81 0.81 90 1011.5
20260506223016 8 0.0 0.0 0.03 0.81 0.81 90 1011.4
20260506222015 8 0.0 0.0 0.03 0.79 0.79 90 1011.3
20260506221055 8 0.0 0.0 0.03 0.79 0.79 90 1011.2
20260506220015 8 0.0 0.0 0.03 0.79 0.79 90 1011.1
20260506215038 8 0.0 0.0 0.03 0.79 0.79 90 1011.0
20260506214018 8 0.0 0.0 0.05 0.79 0.79 90 1010.9
20260506213015 8 0.0 0.0 0.05 0.79 0.79 90 1011.0
20260506212100 8 0.0 0.0 0.05 0.79 0.79 90 1010.9
20260506211017 9 0.0 0.0 0.05 0.79 0.79 90 1010.8
20260506210040 9 0.0 0.0 0.05 0.79 0.79 90 1010.9
20260506205020 9 0.0 0.0 0.08 0.79 0.79 90 1010.8
20260506204017 9 0.0 0.0 0.08 0.76 0.76 91 1011.0
20260506203057 9 0.0 0.0 0.08 0.74 0.74 91 1010.9
20260506202057 9 0.0 0.0 0.08 0.74 0.74 91 1010.8
20260506201017 9 0.0 0.0 0.10 0.74 0.74 91 1010.7
20260506200017 9 0.0 0.0 0.10 0.71 0.71 91 1010.7
20260506195017 9 0.0 0.0 0.10 0.71 0.71 90 1010.6
20260506194121 9 0.0 0.0 0.10 0.69 0.69 90 1010.5
20260506193100 9 0.0 0.0 0.10 0.66 0.66 90 1010.2
20260506192200 9 0.0 0.0 0.15 0.66 0.66 90 1010.1
20260506191117 9 0.0 0.0 0.15 0.64 0.64 90 1010.0
20260506190057 9 0.0 0.0 0.15 0.61 0.61 90 1010.0
20260506185057 9 0.0 0.0 0.15 0.61 0.61 90 1009.9
20260506184057 9 0.0 0.0 0.15 0.58 0.58 90 1009.8
20260506183017 9 0.0 0.0 0.15 0.56 0.56 90 1009.7
20260506182037 10 0.0 0.0 0.15 0.51 0.51 91 1009.5
20260506181017 10 0.0 0.0 0.15 0.51 0.51 91 1009.4
20260506180017 10 0.0 0.0 0.15 0.48 0.46 91 1009.3
20260506175017 10 0.0 0.0 0.15 0.46 0.43 90 1009.2
20260506174017 10 0.0 0.0 0.15 0.43 0.43 90 1009.1
20260506173057 10 0.0 0.0 0.15 0.43 0.41 90 1008.9
20260506172017 10 0.0 0.0 0.15 0.41 0.38 90 1008.8
20260506171017 10 0.0 0.0 0.13 0.36 0.33 90 1008.7
20260506170057 10 0.0 0.0 0.13 0.33 0.33 90 1008.6
20260506165037 10 0.0 0.0 0.13 0.33 0.30 90 1008.6
20260506164017 10 0.0 0.0 0.13 0.30 0.28 90 1008.6
20260506163100 10 0.0 0.0 0.15 0.28 0.25 90 1008.6
20260506162017 10 0.0 0.0 0.13 0.23 0.23 89 1008.6
20260506161037 10 0.0 0.0 0.13 0.23 0.23 90 1008.6
20260506160116 10 0.0 0.0 0.10 0.23 0.20 89 1008.6
20260506155016 10 0.0 0.0 0.08 0.20 0.18 89 1008.6
20260506154057 10 0.0 0.0 0.05 0.18 0.15 88 1008.5
20260506153017 10 0.0 0.0 0.03 0.15 0.13 86 1008.4
20260506152117 10 0.0 0.0 0.00 0.13 0.10 85 1008.2
20260506151017 11 0.0 0.0 0.00 0.13 0.10 86 1008.3
20260506150016 11 0.0 0.0 0.03 0.13 0.10 87 1008.2
20260506145120 11 0.0 0.0 0.03 0.13 0.10 87 1008.2